Location: Al Mulaqqa?ah
(24.1833°N, 32.8833°E)
Time: 02:16:21
(UTC+00:00)

IRS-1C Rocket - Pass Details

Date: 26 September 2021
Orbit: 800 x 806 km, 98.9° (Epoch: 15 October)

Event Time Altitude Azimuth Distance (km) Brightness Sun altitude
Exits shadow 17:17:52 - 173° (S) 3,203 7.1 -22.9°
Reaches altitude 10° 17:19:59 10° 176° (S) 2,368 6.4 -23.4°
Maximum altitude 17:25:10 65° 258° (WSW) 876 4.4 -24.6°
Drops below altitude 10° 17:30:22 10° 340° (NNW) 2,375 6.9 -25.8°
Sets 17:32:44 0° 343° (NNW) 3,307 7.6 -26.3°
